UAL3442 KEWR-KBTV

Flight info

Callsign UAL3442
Flight time 0h 45m
Altitude 21000
Route EWR5 GREKI JUDDS CAM
Aircraft B737/M-VGDW/C

Departure

Time 2026-05-06 20:17
Airport Newark Liberty International Airport (KEWR)

Arrival

Time 2026-05-06 21:02
Airport Patrick Leahy Burlington International Airport (KBTV)
Time Latitude Longitude Altitude Speed Heading
2026-05-06 19:43 40.69801 -74.17478 19 ft 0 kts 190°
2026-05-06 20:07 40.69816 -74.17475 21 ft 4 kts 184°
2026-05-06 20:07 40.69842 -74.17477 22 ft 4 kts 165°
2026-05-06 20:07 40.69866 -74.17491 21 ft 4 kts 139°
2026-05-06 20:07 40.69883 -74.17518 19 ft 4 kts 110°
2026-05-06 20:08 40.69887 -74.17552 19 ft 4 kts 78°
2026-05-06 20:08 40.69881 -74.17571 20 ft 3 kts 44°
2026-05-06 20:08 40.69880 -74.17574 20 ft 0 kts 41°
2026-05-06 20:12 40.69881 -74.17572 20 ft 0 kts 41°
2026-05-06 20:12 40.69901 -74.17550 20 ft 12 kts 40°
2026-05-06 20:12 40.69978 -74.17460 19 ft 17 kts 43°
2026-05-06 20:13 40.70073 -74.17368 20 ft 17 kts 25°
2026-05-06 20:13 40.70114 -74.17237 19 ft 16 kts 90°
2026-05-06 20:13 40.70108 -74.17092 19 ft 16 kts 96°
2026-05-06 20:13 40.70098 -74.16953 19 ft 15 kts 95°
2026-05-06 20:14 40.70090 -74.16820 19 ft 14 kts 95°
2026-05-06 20:14 40.70080 -74.16692 19 ft 14 kts 95°
2026-05-06 20:14 40.70072 -74.16571 18 ft 13 kts 95°
2026-05-06 20:14 40.70066 -74.16481 18 ft 0 kts 95°
2026-05-06 20:16 40.70065 -74.16472 18 ft 5 kts 95°
2026-05-06 20:16 40.70027 -74.16401 16 ft 22 kts 156°
2026-05-06 20:16 40.69620 -74.16621 20 ft 121 kts 207°
2026-05-06 20:17 40.68582 -74.17155 750 ft 180 kts 189°
2026-05-06 20:17 40.67381 -74.17063 2159 ft 190 kts 182°
2026-05-06 20:17 40.65923 -74.16933 2523 ft 210 kts 184°
2026-05-06 20:17 40.64469 -74.17199 2496 ft 216 kts 211°
2026-05-06 20:18 40.63418 -74.18613 2514 ft 221 kts 238°
2026-05-06 20:18 40.62483 -74.20197 2494 ft 217 kts 231°
2026-05-06 20:18 40.61624 -74.21804 2503 ft 211 kts 243°
2026-05-06 20:18 40.61121 -74.23554 3070 ft 218 kts 255°
2026-05-06 20:19 40.60886 -74.25744 3674 ft 254 kts 265°
2026-05-06 20:19 40.60977 -74.28075 4275 ft 255 kts 276°
2026-05-06 20:19 40.61401 -74.30303 4893 ft 251 kts 286°
2026-05-06 20:19 40.62155 -74.32403 5511 ft 257 kts 296°
2026-05-06 20:20 40.63216 -74.34327 5963 ft 264 kts 305°
2026-05-06 20:20 40.64546 -74.36019 5998 ft 269 kts 315°
2026-05-06 20:20 40.66113 -74.37391 5973 ft 273 kts 324°
2026-05-06 20:20 40.67866 -74.38381 5992 ft 275 kts 335°
2026-05-06 20:21 40.69746 -74.38950 6010 ft 281 kts 346°
2026-05-06 20:21 40.71787 -74.39063 6594 ft 311 kts 355°
2026-05-06 20:21 40.74057 -74.38748 7232 ft 344 kts
2026-05-06 20:21 40.76488 -74.37968 7881 ft 374 kts 12°
2026-05-06 20:22 40.78986 -74.36665 8514 ft 402 kts 25°
2026-05-06 20:22 40.81191 -74.34217 9150 ft 429 kts 49°
2026-05-06 20:22 40.82713 -74.30830 9791 ft 428 kts 65°
2026-05-06 20:22 40.83867 -74.27173 10401 ft 435 kts 69°
2026-05-06 20:23 40.85033 -74.23485 10990 ft 437 kts 65°
2026-05-06 20:23 40.86457 -74.19931 11593 ft 439 kts 58°
2026-05-06 20:23 40.88176 -74.16544 12228 ft 449 kts 52°
2026-05-06 20:23 40.90125 -74.13306 12873 ft 458 kts 48°
2026-05-06 20:24 40.92262 -74.10117 13534 ft 463 kts 45°
2026-05-06 20:24 40.94473 -74.07001 14126 ft 466 kts 44°
2026-05-06 20:24 40.96693 -74.03944 14712 ft 468 kts 44°
2026-05-06 20:24 40.98998 -74.00782 15445 ft 470 kts 44°
2026-05-06 20:25 41.01233 -73.97700 16171 ft 472 kts 44°
2026-05-06 20:25 41.03513 -73.94535 16779 ft 478 kts 44°
2026-05-06 20:25 41.05835 -73.91294 16985 ft 489 kts 45°
2026-05-06 20:25 41.08169 -73.88019 16987 ft 489 kts 45°
2026-05-06 20:26 41.10492 -73.84746 16991 ft 488 kts 45°
2026-05-06 20:26 41.12824 -73.81454 16998 ft 489 kts 45°
2026-05-06 20:26 41.15150 -73.78169 16997 ft 488 kts 45°
2026-05-06 20:26 41.17469 -73.74890 17003 ft 488 kts 45°
2026-05-06 20:27 41.19796 -73.71598 16998 ft 488 kts 45°
2026-05-06 20:27 41.22122 -73.68305 17000 ft 488 kts 45°
2026-05-06 20:27 41.24446 -73.65012 16998 ft 489 kts 45°
2026-05-06 20:27 41.26708 -73.61803 17007 ft 488 kts 45°
2026-05-06 20:28 41.29024 -73.58512 17350 ft 487 kts 45°
2026-05-06 20:28 41.31284 -73.55299 17979 ft 489 kts 45°
2026-05-06 20:28 41.33610 -73.51989 18566 ft 490 kts 45°
2026-05-06 20:28 41.35943 -73.48665 19150 ft 492 kts 44°
2026-05-06 20:29 41.38279 -73.45332 19747 ft 494 kts 44°
2026-05-06 20:29 41.40625 -73.41981 20352 ft 495 kts 44°
2026-05-06 20:29 41.42976 -73.38619 20826 ft 500 kts 44°
2026-05-06 20:29 41.45373 -73.35192 20831 ft 510 kts 44°
2026-05-06 20:30 41.47804 -73.31709 20854 ft 516 kts 44°
2026-05-06 20:30 41.52830 -73.24891 20838 ft 512 kts 41°
2026-05-06 20:30 41.55544 -73.21829 20824 ft 506 kts 28°
2026-05-06 20:31 41.58670 -73.19893 20860 ft 489 kts 11°
2026-05-06 20:31 41.61962 -73.19033 20845 ft 479 kts 358°
2026-05-06 20:31 41.65239 -73.19133 20856 ft 467 kts 347°
2026-05-06 20:31 41.68468 -73.19591 20851 ft 467 kts 347°
2026-05-06 20:32 41.71702 -73.20012 20838 ft 468 kts 348°
2026-05-06 20:32 41.74950 -73.20406 20831 ft 468 kts 348°
2026-05-06 20:32 41.78193 -73.20779 20828 ft 469 kts 348°
2026-05-06 20:32 41.81449 -73.21142 20826 ft 469 kts 348°
2026-05-06 20:33 41.84703 -73.21500 20836 ft 470 kts 349°
2026-05-06 20:33 41.87976 -73.21859 20832 ft 471 kts 349°
2026-05-06 20:33 41.91237 -73.22217 20821 ft 472 kts 349°
2026-05-06 20:33 41.94517 -73.22577 20815 ft 472 kts 349°
2026-05-06 20:34 41.97783 -73.22938 20814 ft 472 kts 349°
2026-05-06 20:34 42.01068 -73.23302 20805 ft 472 kts 349°
2026-05-06 20:34 42.04334 -73.23664 20795 ft 471 kts 349°
2026-05-06 20:34 42.07607 -73.24027 20804 ft 471 kts 349°
2026-05-06 20:35 42.10863 -73.24390 20803 ft 472 kts 349°
2026-05-06 20:35 42.14150 -73.24758 20784 ft 472 kts 349°
2026-05-06 20:35 42.17425 -73.25123 20785 ft 472 kts 349°
2026-05-06 20:35 42.20700 -73.25488 20773 ft 471 kts 349°
2026-05-06 20:36 42.23963 -73.25853 20768 ft 471 kts 349°
2026-05-06 20:36 42.27181 -73.26213 20772 ft 471 kts 349°
2026-05-06 20:36 42.30453 -73.26580 20792 ft 471 kts 349°
2026-05-06 20:36 42.33726 -73.26948 20781 ft 472 kts 349°
2026-05-06 20:37 42.37000 -73.27317 20780 ft 473 kts 349°
2026-05-06 20:37 42.40280 -73.27686 20782 ft 473 kts 349°
2026-05-06 20:37 42.43407 -73.28038 20781 ft 474 kts 349°
2026-05-06 20:37 42.46693 -73.28408 20784 ft 474 kts 349°
2026-05-06 20:38 42.49905 -73.28770 20781 ft 474 kts 349°
2026-05-06 20:38 42.53186 -73.29140 20778 ft 474 kts 349°
2026-05-06 20:38 42.56469 -73.29511 20780 ft 474 kts 349°
2026-05-06 20:38 42.59682 -73.29874 20781 ft 475 kts 349°
2026-05-06 20:39 42.62977 -73.30247 20761 ft 474 kts 349°
2026-05-06 20:39 42.66256 -73.30620 20778 ft 474 kts 350°
2026-05-06 20:39 42.69543 -73.30992 20780 ft 474 kts 350°
2026-05-06 20:39 42.72832 -73.31366 20782 ft 474 kts 349°
2026-05-06 20:40 42.76119 -73.31742 20782 ft 474 kts 349°
2026-05-06 20:40 42.79249 -73.32097 20772 ft 475 kts 349°
2026-05-06 20:40 42.82554 -73.32474 20778 ft 475 kts 349°
2026-05-06 20:40 42.85836 -73.32847 20775 ft 475 kts 350°
2026-05-06 20:41 42.89143 -73.33222 20428 ft 477 kts 350°
2026-05-06 20:41 42.92431 -73.33599 20027 ft 474 kts 349°
2026-05-06 20:41 42.95704 -73.33972 19634 ft 466 kts 350°
2026-05-06 20:41 42.98911 -73.34335 19259 ft 463 kts 351°
2026-05-06 20:42 43.02162 -73.34454 18883 ft 469 kts 355°
2026-05-06 20:42 43.05430 -73.34238 18518 ft 471 kts 359°
2026-05-06 20:42 43.08683 -73.33874 18159 ft 469 kts 360°
2026-05-06 20:42 43.11916 -73.33472 17777 ft 466 kts 360°
2026-05-06 20:43 43.15142 -73.33089 17384 ft 463 kts
2026-05-06 20:43 43.18341 -73.32739 17005 ft 460 kts 359°
2026-05-06 20:43 43.21521 -73.32420 16627 ft 457 kts 359°
2026-05-06 20:43 43.24684 -73.32119 16258 ft 454 kts 359°
2026-05-06 20:44 43.27822 -73.31833 15889 ft 451 kts 358°
2026-05-06 20:44 43.30934 -73.31291 15489 ft 455 kts
2026-05-06 20:44 43.33931 -73.30023 15154 ft 455 kts 15°
2026-05-06 20:44 43.36905 -73.28564 14804 ft 454 kts 15°
2026-05-06 20:45 43.39914 -73.27089 14439 ft 451 kts 15°
2026-05-06 20:45 43.42858 -73.25658 14089 ft 448 kts 16°
2026-05-06 20:45 43.45764 -73.24256 13743 ft 446 kts 14°
2026-05-06 20:45 43.48683 -73.22859 13366 ft 443 kts 15°
2026-05-06 20:46 43.51629 -73.21457 12970 ft 440 kts 15°
2026-05-06 20:46 43.54520 -73.20082 12589 ft 438 kts 14°
2026-05-06 20:46 43.57393 -73.18716 12201 ft 435 kts 15°
2026-05-06 20:46 43.60243 -73.17359 11810 ft 432 kts 15°
2026-05-06 20:47 43.63039 -73.16027 11467 ft 430 kts 15°
2026-05-06 20:47 43.65886 -73.14668 11080 ft 427 kts 16°
2026-05-06 20:47 43.68638 -73.13354 10715 ft 416 kts 14°
2026-05-06 20:47 43.71300 -73.12076 10351 ft 395 kts 15°
2026-05-06 20:48 43.73831 -73.10858 9978 ft 375 kts 15°
2026-05-06 20:48 43.76244 -73.09698 9606 ft 359 kts 15°
2026-05-06 20:48 43.78556 -73.08588 9217 ft 346 kts 15°
2026-05-06 20:48 43.80790 -73.07516 8829 ft 334 kts 15°
2026-05-06 20:49 43.82958 -73.06476 8458 ft 324 kts 14°
2026-05-06 20:49 43.85051 -73.05471 8151 ft 313 kts 14°
2026-05-06 20:49 43.87083 -73.04495 7845 ft 305 kts 14°
2026-05-06 20:49 43.89070 -73.03541 7538 ft 300 kts 14°
2026-05-06 20:50 43.91031 -73.02600 7256 ft 299 kts 14°
2026-05-06 20:50 43.93003 -73.01652 7061 ft 297 kts 14°
2026-05-06 20:50 43.94973 -73.00706 7000 ft 303 kts 14°
2026-05-06 20:50 43.96960 -72.99749 6998 ft 301 kts 15°
2026-05-06 20:51 43.98933 -72.98796 6975 ft 298 kts 14°
2026-05-06 20:51 44.00884 -72.97852 6968 ft 298 kts 14°
2026-05-06 20:51 44.02844 -72.96905 6957 ft 297 kts 15°
2026-05-06 20:51 44.04793 -72.95961 6996 ft 297 kts 14°
2026-05-06 20:52 44.06752 -72.95013 6975 ft 300 kts 15°
2026-05-06 20:52 44.08727 -72.94055 6967 ft 300 kts 15°
2026-05-06 20:52 44.10696 -72.93099 6951 ft 298 kts 14°
2026-05-06 20:52 44.12645 -72.92153 6973 ft 297 kts 14°
2026-05-06 20:53 44.14581 -72.91127 6980 ft 301 kts 24°
2026-05-06 20:53 44.16270 -72.89366 6989 ft 299 kts 39°
2026-05-06 20:53 44.17272 -72.88107 6980 ft 286 kts 39°
2026-05-06 20:53 44.18707 -72.86314 6964 ft 269 kts 39°
2026-05-06 20:54 44.20054 -72.84654 6998 ft 249 kts 38°
2026-05-06 20:54 44.21316 -72.83119 6920 ft 236 kts 38°
2026-05-06 20:54 44.22549 -72.81691 7035 ft 222 kts 25°
2026-05-06 20:54 44.24010 -72.81182 6498 ft 227 kts 352°
2026-05-06 20:55 44.25504 -72.81491 6538 ft 201 kts 329°
2026-05-06 20:55 44.26660 -72.82378 6660 ft 182 kts 314°
2026-05-06 20:55 44.27517 -72.83616 6484 ft 181 kts 303°
2026-05-06 20:55 44.28310 -72.84983 6463 ft 180 kts 302°
2026-05-06 20:56 44.29135 -72.86316 6425 ft 184 kts 302°
2026-05-06 20:56 44.30041 -72.87821 5572 ft 211 kts 304°
2026-05-06 20:56 44.30900 -72.89236 5873 ft 185 kts 306°
2026-05-06 20:56 44.31816 -72.90499 5707 ft 190 kts 308°
2026-05-06 20:57 44.32728 -72.91850 5182 ft 203 kts 306°
2026-05-06 20:57 44.33622 -72.93364 4888 ft 199 kts 303°
2026-05-06 20:57 44.34468 -72.94853 4459 ft 193 kts 306°
2026-05-06 20:57 44.35349 -72.96195 4232 ft 181 kts 311°
2026-05-06 20:58 44.36208 -72.97414 3976 ft 170 kts 308°
2026-05-06 20:58 44.36868 -72.98541 3954 ft 134 kts 306°
2026-05-06 20:58 44.37467 -72.99586 3409 ft 141 kts 308°
2026-05-06 20:58 44.38094 -73.00653 2910 ft 142 kts 311°
2026-05-06 20:59 44.38734 -73.01660 2637 ft 135 kts 315°
2026-05-06 20:59 44.39385 -73.02566 2444 ft 130 kts 317°
2026-05-06 20:59 44.40042 -73.03468 2555 ft 132 kts 314°
2026-05-06 20:59 44.40662 -73.04401 2393 ft 135 kts 316°
2026-05-06 21:00 44.41312 -73.05403 2257 ft 140 kts 315°
2026-05-06 21:00 44.41946 -73.06440 2187 ft 141 kts 312°
2026-05-06 21:00 44.42584 -73.07511 1814 ft 143 kts 313°
2026-05-06 21:00 44.43217 -73.08537 1538 ft 136 kts 311°
2026-05-06 21:01 44.43781 -73.09596 1278 ft 136 kts 306°
2026-05-06 21:01 44.44323 -73.10641 1165 ft 129 kts 310°
2026-05-06 21:01 44.44900 -73.11583 935 ft 130 kts 318°
2026-05-06 21:01 44.45528 -73.12501 742 ft 124 kts 310°
2026-05-06 21:02 44.46076 -73.13405 588 ft 120 kts 314°
2026-05-06 21:02 44.46641 -73.14276 409 ft 120 kts 311°
2026-05-06 21:02 44.47147 -73.15104 338 ft 92 kts 312°
2026-05-06 21:02 44.47434 -73.15561 336 ft 43 kts 311°
2026-05-06 21:03 44.47524 -73.15821 328 ft 23 kts 244°
2026-05-06 21:03 44.47488 -73.15875 323 ft 6 kts 220°
2026-05-06 21:03 44.47413 -73.15873 326 ft 17 kts 143°
2026-05-06 21:03 44.47329 -73.15749 332 ft 17 kts 131°
2026-05-06 21:04 44.47253 -73.15625 336 ft 17 kts 130°
2026-05-06 21:04 44.47179 -73.15503 334 ft 16 kts 130°
2026-05-06 21:04 44.47107 -73.15389 338 ft 15 kts 142°
2026-05-06 21:04 44.47007 -73.15353 335 ft 14 kts 176°
2026-05-06 21:05 44.46951 -73.15406 337 ft 2 kts 263°
2026-05-06 21:05 44.46949 -73.15424 338 ft 2 kts 264°
2026-05-06 21:05 44.46949 -73.15428 338 ft 0 kts 264°